Pluckemin, NJ

9:16 AM EDT on September 26, 2016 (GMT -0400)
Somerset

Weather History for KSMQ - August, 2012

Change the Weather History Date:

Thursday, August 23, 2012

  Actual Average Record
Temperature  
Mean Temperature 73 °F -  
Max Temperature 87 °F 81 °F 93 °F (1943)
Min Temperature 60 °F 56 °F 1 °F (2005)
Cooling Degree Days 8    
Growing Degree Days 23 (Base 50)    
Moisture  
Dew Point 61 °F    
Average Humidity 73    
Maximum Humidity 97    
Minimum Humidity 37    
Precipitation  
Precipitation 0.01 in - - ()
Sea Level Pressure  
Sea Level Pressure 30.12 in    
Wind  
Wind Speed 0 mph (West)    
Max Wind Speed 5 mph    
Max Gust Speed -    
Visibility 8 miles    
Events      
Averages and records for this station are not official NWS values.
T = Trace of Precipitation, MM = Missing Value Source: NWS Daily Summary

Daily Weather History Graph

Daily Weather History Graph

Search for Another Location

Airport or City:

Trip Planner

Search our weather history database for the weather conditions in past years. The results will help you decide how hot, cold, wet, or windy it might be!

Date:

Astronomy

Aug. 23, 2012 Rise Set
Actual Time 6:17 AM EDT 7:44 PM EDT
Civil Twilight 5:48 AM EDT 8:12 PM EDT
Nautical Twilight 5:14 AM EDT 8:47 PM EDT
Astronomical Twilight 4:37 AM EDT 9:23 PM EDT
Moon 1:04 PM EDT (8/23) 11:08 PM EDT (8/23)
Length of Visible Light 14h 23m
Length of Day
13h 26m
Waxing Crescent, 40% of the Moon is Illuminated
Aug 23
Waxing Crescent
Aug 24
First Quarter
Aug 31
Full
Sep 8
Last Quarter
Sep 15
New

Hourly Weather History & Observations

Time (EDT) Temp. Heat Index Dew Point Humidity Pressure Visibility Wind Dir Wind Speed Gust Speed Precip Events Conditions
12:53 AM 64.0 °F - 62.1 °F 93% 30.14 in 7.0 mi Calm Calm - N/A   Clear
1:53 AM 63.0 °F - 61.0 °F 93% 30.12 in 7.0 mi Calm Calm - N/A   Clear
2:53 AM 62.1 °F - 60.1 °F 93% 30.13 in 6.0 mi Calm Calm - 0.01 in   Clear
3:53 AM 61.0 °F - 60.1 °F 97% 30.13 in 7.0 mi Calm Calm - N/A   Clear
4:53 AM 60.1 °F - 59.0 °F 96% 30.13 in 7.0 mi Calm Calm - N/A   Clear
5:53 AM 60.1 °F - 59.0 °F 96% 30.14 in 5.0 mi Calm Calm - N/A   Clear
6:53 AM 61.0 °F - 59.0 °F 93% 30.15 in 5.0 mi Calm Calm - N/A   Clear
7:53 AM 64.9 °F - 62.1 °F 90% 30.15 in 8.0 mi Calm Calm - N/A   Clear
8:53 AM 72.0 °F - 64.0 °F 76% 30.15 in 9.0 mi Calm Calm - N/A   Clear
9:53 AM 75.9 °F - 64.9 °F 69% 30.15 in 10.0 mi Calm Calm - N/A   Clear
10:53 AM 80.1 °F 81.7 °F 64.0 °F 58% 30.15 in 10.0 mi Calm Calm - N/A   Clear
11:53 AM 82.9 °F 83.7 °F 62.1 °F 49% 30.14 in 10.0 mi West 4.6 mph - N/A   Clear
12:53 PM 82.9 °F 83.2 °F 60.1 °F 46% 30.13 in 10.0 mi Calm Calm - N/A   Scattered Clouds
1:53 PM 84.9 °F 84.4 °F 59.0 °F 41% 30.12 in 10.0 mi Calm Calm - N/A   Clear
2:53 PM 86.0 °F 85.4 °F 59.0 °F 40% 30.10 in 10.0 mi Calm Calm - N/A   Partly Cloudy
3:53 PM 82.9 °F 82.0 °F 55.0 °F 38% 30.09 in 10.0 mi Calm Calm - N/A   Clear
4:53 PM 84.2 °F 83.0 °F 55.4 °F 37% 30.09 in 10.0 mi Variable 3.5 mph - N/A   Clear
5:53 PM 80.1 °F 80.9 °F 60.1 °F 50% 30.09 in 10.0 mi Calm Calm - N/A   Clear
6:53 PM 75.0 °F - 63.0 °F 66% 30.09 in 10.0 mi Calm Calm - N/A   Clear
7:53 PM 71.1 °F - 62.1 °F 73% 30.09 in 9.0 mi Calm Calm - N/A   Clear
8:53 PM 68.0 °F - 64.0 °F 87% 30.11 in 8.0 mi Calm Calm - N/A   Clear
9:53 PM 66.9 °F - 64.0 °F 90% 30.12 in 7.0 mi Calm Calm - N/A   Clear
10:53 PM 66.0 °F - 64.0 °F 93% 30.13 in 4.0 mi Calm Calm - N/A   Clear
11:53 PM 64.9 °F - 64.0 °F 97% 30.13 in 4.0 mi Calm Calm - N/A   Clear